Location: Lecco
(45.8566°N, 9.3977°E)
Time: 07:45:44
(UTC+02:00)

ISS - Visible Passes

Search period start: 25 April 2019 00:00
Search period end: 05 May 2019 00:00
Orbit: 408 x 410 km, 51.6° (Epoch: 25 April)

Date Brightness Start Highest point End Pass type
(mag) Time Alt. Az. Time Alt. Az. Time Alt. Az.
28 Apr -1.1 05:26:39 10° SSE 05:28:05 12° SE 05:29:31 10° ESE visible
30 Apr -2.2 05:19:46 10° SSW 05:22:37 27° SE 05:25:29 10° E visible
01 May -1.5 04:30:35 13° SSE 04:31:55 16° SE 04:34:04 10° E visible
02 May -3.5 05:14:25 13° SW 05:17:14 60° SSE 05:20:32 10° ENE visible
03 May -2.8 04:25:26 28° S 04:26:26 35° SE 04:29:30 10° ENE visible
04 May -1.8 03:36:23 20° ESE 03:36:23 20° ESE 03:38:15 10° E visible
04 May -3.6 05:09:07 13° WSW 05:11:59 67° NNW 05:15:17 10° ENE visible
